Location: Aufkirchen
(47.9603°N, 11.3653°E)
Time: 07:13:02
(UTC+01:00)

Transit 2A - Pass Details

Date: 27 November 2020
Orbit: 598 x 960 km, 66.7° (Epoch: 16 January)

Event Time Altitude Azimuth Distance (km) Brightness Sun altitude
Rises 17:31:44 0° 194° (SSW) 3,627 10.0 -10.7°
Reaches altitude 10° 17:34:22 10° 189° (S) 2,678 9.2 -11.2°
Maximum altitude 17:40:25 50° 117° (ESE) 1,175 6.7 -12.1°
Enters shadow 17:45:25 14° 46° (NE) 2,295 7.9 -12.9°
Drops below altitude 10° 17:46:11 10° 43° (NE) 2,561 - -13.0°
Sets 17:48:40 0° 39° (NE) 3,455 - -13.4°
